Index of /20260415/WXO-DD/model_gdps/15km/12/153
Name Last modified Size Description
Parent Directory -
20260415T12Z_MSC_GDPS_AirTemp_AGL-120m_LatLon0.15_PT153H.grib2 2026-04-15 16:31 911K
20260415T12Z_MSC_GDPS_AirTemp_AGL-2m_LatLon0.15_PT153H.grib2 2026-04-15 16:31 1.0M
20260415T12Z_MSC_GDPS_AirTemp_AGL-40m_LatLon0.15_PT153H.grib2 2026-04-15 16:31 935K
20260415T12Z_MSC_GDPS_AirTemp_AGL-80m_LatLon0.15_PT153H.grib2 2026-04-15 16:31 922K
20260415T12Z_MSC_GDPS_AirTemp_IsbL-0001_LatLon0.15_PT153H.grib2 2026-04-15 16:31 702K
20260415T12Z_MSC_GDPS_AirTemp_IsbL-0005_LatLon0.15_PT153H.grib2 2026-04-15 16:31 683K
20260415T12Z_MSC_GDPS_AirTemp_IsbL-0010_LatLon0.15_PT153H.grib2 2026-04-15 16:31 752K
20260415T12Z_MSC_GDPS_AirTemp_IsbL-0020_LatLon0.15_PT153H.grib2 2026-04-15 16:31 696K
20260415T12Z_MSC_GDPS_AirTemp_IsbL-0030_LatLon0.15_PT153H.grib2 2026-04-15 16:31 752K
20260415T12Z_MSC_GDPS_AirTemp_IsbL-0050_LatLon0.15_PT153H.grib2 2026-04-15 16:31 815K
20260415T12Z_MSC_GDPS_AirTemp_IsbL-0100_LatLon0.15_PT153H.grib2 2026-04-15 16:31 962K
20260415T12Z_MSC_GDPS_AirTemp_IsbL-0150_LatLon0.15_PT153H.grib2 2026-04-15 16:31 1.0M
20260415T12Z_MSC_GDPS_AirTemp_IsbL-0175_LatLon0.15_PT153H.grib2 2026-04-15 16:31 1.0M
20260415T12Z_MSC_GDPS_AirTemp_IsbL-0200_LatLon0.15_PT153H.grib2 2026-04-15 16:31 1.0M
20260415T12Z_MSC_GDPS_AirTemp_IsbL-0225_LatLon0.15_PT153H.grib2 2026-04-15 16:31 1.0M
20260415T12Z_MSC_GDPS_AirTemp_IsbL-0250_LatLon0.15_PT153H.grib2 2026-04-15 16:31 1.0M
20260415T12Z_MSC_GDPS_AirTemp_IsbL-0275_LatLon0.15_PT153H.grib2 2026-04-15 16:31 1.0M
20260415T12Z_MSC_GDPS_AirTemp_IsbL-0300_LatLon0.15_PT153H.grib2 2026-04-15 16:31 1.0M
20260415T12Z_MSC_GDPS_AirTemp_IsbL-0350_LatLon0.15_PT153H.grib2 2026-04-15 16:31 936K
20260415T12Z_MSC_GDPS_AirTemp_IsbL-0400_LatLon0.15_PT153H.grib2 2026-04-15 16:31 944K
20260415T12Z_MSC_GDPS_AirTemp_IsbL-0450_LatLon0.15_PT153H.grib2 2026-04-15 16:31 968K
20260415T12Z_MSC_GDPS_AirTemp_IsbL-0500_LatLon0.15_PT153H.grib2 2026-04-15 16:31 1.0M
20260415T12Z_MSC_GDPS_AirTemp_IsbL-0550_LatLon0.15_PT153H.grib2 2026-04-15 16:31 804K
20260415T12Z_MSC_GDPS_AirTemp_IsbL-0600_LatLon0.15_PT153H.grib2 2026-04-15 16:31 897K
20260415T12Z_MSC_GDPS_AirTemp_IsbL-0650_LatLon0.15_PT153H.grib2 2026-04-15 16:31 921K
20260415T12Z_MSC_GDPS_AirTemp_IsbL-0700_LatLon0.15_PT153H.grib2 2026-04-15 16:31 957K
20260415T12Z_MSC_GDPS_AirTemp_IsbL-0750_LatLon0.15_PT153H.grib2 2026-04-15 16:31 1.0M
20260415T12Z_MSC_GDPS_AirTemp_IsbL-0800_LatLon0.15_PT153H.grib2 2026-04-15 16:31 1.1M
20260415T12Z_MSC_GDPS_AirTemp_IsbL-0850_LatLon0.15_PT153H.grib2 2026-04-15 16:31 1.1M
20260415T12Z_MSC_GDPS_AirTemp_IsbL-0875_LatLon0.15_PT153H.grib2 2026-04-15 16:31 1.1M
20260415T12Z_MSC_GDPS_AirTemp_IsbL-0900_LatLon0.15_PT153H.grib2 2026-04-15 16:31 1.1M
20260415T12Z_MSC_GDPS_AirTemp_IsbL-0925_LatLon0.15_PT153H.grib2 2026-04-15 16:31 1.1M
20260415T12Z_MSC_GDPS_AirTemp_IsbL-0950_LatLon0.15_PT153H.grib2 2026-04-15 16:31 1.1M
20260415T12Z_MSC_GDPS_AirTemp_IsbL-0970_LatLon0.15_PT153H.grib2 2026-04-15 16:31 1.1M
20260415T12Z_MSC_GDPS_AirTemp_IsbL-0985_LatLon0.15_PT153H.grib2 2026-04-15 16:31 1.1M
20260415T12Z_MSC_GDPS_AirTemp_IsbL-1000_LatLon0.15_PT153H.grib2 2026-04-15 16:31 1.1M
20260415T12Z_MSC_GDPS_AirTemp_IsbL-1015_LatLon0.15_PT153H.grib2 2026-04-15 16:31 1.1M
20260415T12Z_MSC_GDPS_Albedo_Sfc_LatLon0.15_PT153H.grib2 2026-04-15 16:31 246K
20260415T12Z_MSC_GDPS_CAPE_Sfc_LatLon0.15_PT153H.grib2 2026-04-15 16:31 3.6M
20260415T12Z_MSC_GDPS_CIN_Sfc_LatLon0.15_PT153H.grib2 2026-04-15 16:31 2.8M
20260415T12Z_MSC_GDPS_ConvectivePrecip-Accum_Sfc_LatLon0.15_PT153H.grib2 2026-04-15 16:31 3.7M
20260415T12Z_MSC_GDPS_DewPointDepression_AGL-2m_LatLon0.15_PT153H.grib2 2026-04-15 16:31 749K
20260415T12Z_MSC_GDPS_DewPointDepression_IsbL-0010_LatLon0.15_PT153H.grib2 2026-04-15 16:31 23K
20260415T12Z_MSC_GDPS_DewPointDepression_IsbL-0020_LatLon0.15_PT153H.grib2 2026-04-15 16:31 58K
20260415T12Z_MSC_GDPS_DewPointDepression_IsbL-0030_LatLon0.15_PT153H.grib2 2026-04-15 16:31 71K
20260415T12Z_MSC_GDPS_DewPointDepression_IsbL-0050_LatLon0.15_PT153H.grib2 2026-04-15 16:31 352K
20260415T12Z_MSC_GDPS_DewPointDepression_IsbL-0100_LatLon0.15_PT153H.grib2 2026-04-15 16:31 392K
20260415T12Z_MSC_GDPS_DewPointDepression_IsbL-0150_LatLon0.15_PT153H.grib2 2026-04-15 16:31 467K
20260415T12Z_MSC_GDPS_DewPointDepression_IsbL-0175_LatLon0.15_PT153H.grib2 2026-04-15 16:31 557K
20260415T12Z_MSC_GDPS_DewPointDepression_IsbL-0200_LatLon0.15_PT153H.grib2 2026-04-15 16:31 648K
20260415T12Z_MSC_GDPS_DewPointDepression_IsbL-0225_LatLon0.15_PT153H.grib2 2026-04-15 16:31 761K
20260415T12Z_MSC_GDPS_DewPointDepression_IsbL-0250_LatLon0.15_PT153H.grib2 2026-04-15 16:31 859K
20260415T12Z_MSC_GDPS_DewPointDepression_IsbL-0275_LatLon0.15_PT153H.grib2 2026-04-15 16:31 888K
20260415T12Z_MSC_GDPS_DewPointDepression_IsbL-0300_LatLon0.15_PT153H.grib2 2026-04-15 16:31 933K
20260415T12Z_MSC_GDPS_DewPointDepression_IsbL-0350_LatLon0.15_PT153H.grib2 2026-04-15 16:31 961K
20260415T12Z_MSC_GDPS_DewPointDepression_IsbL-0400_LatLon0.15_PT153H.grib2 2026-04-15 16:31 1.0M
20260415T12Z_MSC_GDPS_DewPointDepression_IsbL-0450_LatLon0.15_PT153H.grib2 2026-04-15 16:31 1.0M
20260415T12Z_MSC_GDPS_DewPointDepression_IsbL-0500_LatLon0.15_PT153H.grib2 2026-04-15 16:31 1.0M
20260415T12Z_MSC_GDPS_DewPointDepression_IsbL-0550_LatLon0.15_PT153H.grib2 2026-04-15 16:31 1.0M
20260415T12Z_MSC_GDPS_DewPointDepression_IsbL-0600_LatLon0.15_PT153H.grib2 2026-04-15 16:31 1.1M
20260415T12Z_MSC_GDPS_DewPointDepression_IsbL-0650_LatLon0.15_PT153H.grib2 2026-04-15 16:31 1.1M
20260415T12Z_MSC_GDPS_DewPointDepression_IsbL-0700_LatLon0.15_PT153H.grib2 2026-04-15 16:31 1.1M
20260415T12Z_MSC_GDPS_DewPointDepression_IsbL-0750_LatLon0.15_PT153H.grib2 2026-04-15 16:31 1.1M
20260415T12Z_MSC_GDPS_DewPointDepression_IsbL-0800_LatLon0.15_PT153H.grib2 2026-04-15 16:31 1.2M
20260415T12Z_MSC_GDPS_DewPointDepression_IsbL-0850_LatLon0.15_PT153H.grib2 2026-04-15 16:31 1.1M
20260415T12Z_MSC_GDPS_DewPointDepression_IsbL-0875_LatLon0.15_PT153H.grib2 2026-04-15 16:31 1.1M
20260415T12Z_MSC_GDPS_DewPointDepression_IsbL-0900_LatLon0.15_PT153H.grib2 2026-04-15 16:31 1.1M
20260415T12Z_MSC_GDPS_DewPointDepression_IsbL-0925_LatLon0.15_PT153H.grib2 2026-04-15 16:31 1.0M
20260415T12Z_MSC_GDPS_DewPointDepression_IsbL-0950_LatLon0.15_PT153H.grib2 2026-04-15 16:31 1.0M
20260415T12Z_MSC_GDPS_DewPointDepression_IsbL-0970_LatLon0.15_PT153H.grib2 2026-04-15 16:31 1.0M
20260415T12Z_MSC_GDPS_DewPointDepression_IsbL-0985_LatLon0.15_PT153H.grib2 2026-04-15 16:31 1.0M
20260415T12Z_MSC_GDPS_DewPointDepression_IsbL-1000_LatLon0.15_PT153H.grib2 2026-04-15 16:31 968K
20260415T12Z_MSC_GDPS_DewPointDepression_IsbL-1015_LatLon0.15_PT153H.grib2 2026-04-15 16:31 904K
20260415T12Z_MSC_GDPS_DewPoint_AGL-2m_LatLon0.15_PT153H.grib2 2026-04-15 16:31 609K
20260415T12Z_MSC_GDPS_DownwardLongwaveRadiationFlux-Accum_Sfc_LatLon0.15_PT153H.grib2 2026-04-15 16:31 851K
20260415T12Z_MSC_GDPS_DownwardShortwaveRadiationFlux-Accum_Sfc_LatLon0.15_PT153H.grib2 2026-04-15 16:31 1.1M
20260415T12Z_MSC_GDPS_FreezingRain-Accum3h_Sfc_LatLon0.15_PT153H.grib2 2026-04-15 16:31 33K
20260415T12Z_MSC_GDPS_FreezingRain-Accum_Sfc_LatLon0.15_PT153H.grib2 2026-04-15 16:31 364K
20260415T12Z_MSC_GDPS_GeopotentialHeight_IsbL-0001_LatLon0.15_PT153H.grib2 2026-04-15 16:31 396K
20260415T12Z_MSC_GDPS_GeopotentialHeight_IsbL-0005_LatLon0.15_PT153H.grib2 2026-04-15 16:31 493K
20260415T12Z_MSC_GDPS_GeopotentialHeight_IsbL-0010_LatLon0.15_PT153H.grib2 2026-04-15 16:31 429K
20260415T12Z_MSC_GDPS_GeopotentialHeight_IsbL-0020_LatLon0.15_PT153H.grib2 2026-04-15 16:31 574K
20260415T12Z_MSC_GDPS_GeopotentialHeight_IsbL-0030_LatLon0.15_PT153H.grib2 2026-04-15 16:31 580K
20260415T12Z_MSC_GDPS_GeopotentialHeight_IsbL-0050_LatLon0.15_PT153H.grib2 2026-04-15 16:31 584K
20260415T12Z_MSC_GDPS_GeopotentialHeight_IsbL-0100_LatLon0.15_PT153H.grib2 2026-04-15 16:31 620K
20260415T12Z_MSC_GDPS_GeopotentialHeight_IsbL-0150_LatLon0.15_PT153H.grib2 2026-04-15 16:31 638K
20260415T12Z_MSC_GDPS_GeopotentialHeight_IsbL-0175_LatLon0.15_PT153H.grib2 2026-04-15 16:31 643K
20260415T12Z_MSC_GDPS_GeopotentialHeight_IsbL-0200_LatLon0.15_PT153H.grib2 2026-04-15 16:31 647K
20260415T12Z_MSC_GDPS_GeopotentialHeight_IsbL-0225_LatLon0.15_PT153H.grib2 2026-04-15 16:31 649K
20260415T12Z_MSC_GDPS_GeopotentialHeight_IsbL-0250_LatLon0.15_PT153H.grib2 2026-04-15 16:31 653K
20260415T12Z_MSC_GDPS_GeopotentialHeight_IsbL-0275_LatLon0.15_PT153H.grib2 2026-04-15 16:31 651K
20260415T12Z_MSC_GDPS_GeopotentialHeight_IsbL-0300_LatLon0.15_PT153H.grib2 2026-04-15 16:31 649K
20260415T12Z_MSC_GDPS_GeopotentialHeight_IsbL-0350_LatLon0.15_PT153H.grib2 2026-04-15 16:31 641K
20260415T12Z_MSC_GDPS_GeopotentialHeight_IsbL-0400_LatLon0.15_PT153H.grib2 2026-04-15 16:31 631K
20260415T12Z_MSC_GDPS_GeopotentialHeight_IsbL-0450_LatLon0.15_PT153H.grib2 2026-04-15 16:31 550K
20260415T12Z_MSC_GDPS_GeopotentialHeight_IsbL-0500_LatLon0.15_PT153H.grib2 2026-04-15 16:31 539K
20260415T12Z_MSC_GDPS_GeopotentialHeight_IsbL-0550_LatLon0.15_PT153H.grib2 2026-04-15 16:31 531K
20260415T12Z_MSC_GDPS_GeopotentialHeight_IsbL-0600_LatLon0.15_PT153H.grib2 2026-04-15 16:31 695K
20260415T12Z_MSC_GDPS_GeopotentialHeight_IsbL-0650_LatLon0.15_PT153H.grib2 2026-04-15 16:31 692K
20260415T12Z_MSC_GDPS_GeopotentialHeight_IsbL-0700_LatLon0.15_PT153H.grib2 2026-04-15 16:31 692K
20260415T12Z_MSC_GDPS_GeopotentialHeight_IsbL-0750_LatLon0.15_PT153H.grib2 2026-04-15 16:31 696K
20260415T12Z_MSC_GDPS_GeopotentialHeight_IsbL-0800_LatLon0.15_PT153H.grib2 2026-04-15 16:31 706K
20260415T12Z_MSC_GDPS_GeopotentialHeight_IsbL-0850_LatLon0.15_PT153H.grib2 2026-04-15 16:31 717K
20260415T12Z_MSC_GDPS_GeopotentialHeight_IsbL-0875_LatLon0.15_PT153H.grib2 2026-04-15 16:31 718K
20260415T12Z_MSC_GDPS_GeopotentialHeight_IsbL-0900_LatLon0.15_PT153H.grib2 2026-04-15 16:31 728K
20260415T12Z_MSC_GDPS_GeopotentialHeight_IsbL-0925_LatLon0.15_PT153H.grib2 2026-04-15 16:31 736K
20260415T12Z_MSC_GDPS_GeopotentialHeight_IsbL-0950_LatLon0.15_PT153H.grib2 2026-04-15 16:31 741K
20260415T12Z_MSC_GDPS_GeopotentialHeight_IsbL-0970_LatLon0.15_PT153H.grib2 2026-04-15 16:31 754K
20260415T12Z_MSC_GDPS_GeopotentialHeight_IsbL-0985_LatLon0.15_PT153H.grib2 2026-04-15 16:31 770K
20260415T12Z_MSC_GDPS_GeopotentialHeight_IsbL-1000_LatLon0.15_PT153H.grib2 2026-04-15 16:31 792K
20260415T12Z_MSC_GDPS_GeopotentialHeight_IsbL-1015_LatLon0.15_PT153H.grib2 2026-04-15 16:31 814K
20260415T12Z_MSC_GDPS_Humidex_Sfc_LatLon0.15_PT153H.grib2 2026-04-15 16:31 5.3M
20260415T12Z_MSC_GDPS_IcePellets-Accum3h_Sfc_LatLon0.15_PT153H.grib2 2026-04-15 16:31 8.0K
20260415T12Z_MSC_GDPS_IcePellets-Accum_Sfc_LatLon0.15_PT153H.grib2 2026-04-15 16:31 185K
20260415T12Z_MSC_GDPS_KIndex_Sfc_LatLon0.15_PT153H.grib2 2026-04-15 16:31 6.5M
20260415T12Z_MSC_GDPS_LatentHeatNetFlux_Sfc_LatLon0.15_PT153H.grib2 2026-04-15 16:31 493K
20260415T12Z_MSC_GDPS_LiftedIndex-MU-VT_IsbL-0500_LatLon0.15_PT153H.grib2 2026-04-15 16:31 5.3M
20260415T12Z_MSC_GDPS_NetLongwaveRadiationFlux-Accum_Sfc_LatLon0.15_PT153H.grib2 2026-04-15 16:31 1.1M
20260415T12Z_MSC_GDPS_NetShortwaveRadiationFlux-Accum_Sfc_LatLon0.15_PT153H.grib2 2026-04-15 16:31 1.1M
20260415T12Z_MSC_GDPS_O3MixingRatio_LatLon0.15_PT153H.grib2 2026-04-15 16:50 2.3M
20260415T12Z_MSC_GDPS_O3_EAtm_LatLon0.15_PT153H.grib2 2026-04-15 16:50 2.5M
20260415T12Z_MSC_GDPS_PlanetaryBoundaryLayerHeight_Sfc_LatLon0.15_PT153H.grib2 2026-04-15 16:31 2.4M
20260415T12Z_MSC_GDPS_Precip-Accum3h_Sfc_LatLon0.15_PT153H.grib2 2026-04-15 16:31 3.5M
20260415T12Z_MSC_GDPS_Precip-Accum_Sfc_LatLon0.15_PT153H.grib2 2026-04-15 16:31 5.3M
20260415T12Z_MSC_GDPS_PrecipRate_Sfc_LatLon0.15_PT153H.grib2 2026-04-15 16:31 2.9M
20260415T12Z_MSC_GDPS_PrecipType-Instant_Sfc_LatLon0.15_PT153H.grib2 2026-04-15 16:31 1.5M
20260415T12Z_MSC_GDPS_Pressure_MSL_LatLon0.15_PT153H.grib2 2026-04-15 16:31 726K
20260415T12Z_MSC_GDPS_Pressure_PVU-1.5_LatLon0.15_PT153H.grib2 2026-04-15 16:31 5.8M
20260415T12Z_MSC_GDPS_Pressure_PVU-1_LatLon0.15_PT153H.grib2 2026-04-15 16:31 6.0M
20260415T12Z_MSC_GDPS_Pressure_PVU-2_LatLon0.15_PT153H.grib2 2026-04-15 16:31 5.6M
20260415T12Z_MSC_GDPS_Pressure_Sfc_LatLon0.15_PT153H.grib2 2026-04-15 16:31 1.1M
20260415T12Z_MSC_GDPS_RadiativeTemp_Sfc_LatLon0.15_PT153H.grib2 2026-04-15 16:31 666K
20260415T12Z_MSC_GDPS_Rain-Accum3h_Sfc_LatLon0.15_PT153H.grib2 2026-04-15 16:31 1.6M
20260415T12Z_MSC_GDPS_Rain-Accum_Sfc_LatLon0.15_PT153H.grib2 2026-04-15 16:31 4.0M
20260415T12Z_MSC_GDPS_RelativeHumidity_AGL-2m_LatLon0.15_PT153H.grib2 2026-04-15 16:31 1.0M
20260415T12Z_MSC_GDPS_RelativeHumidity_IsbL-0010_LatLon0.15_PT153H.grib2 2026-04-15 16:31 242K
20260415T12Z_MSC_GDPS_RelativeHumidity_IsbL-0020_LatLon0.15_PT153H.grib2 2026-04-15 16:31 356K
20260415T12Z_MSC_GDPS_RelativeHumidity_IsbL-0030_LatLon0.15_PT153H.grib2 2026-04-15 16:31 410K
20260415T12Z_MSC_GDPS_RelativeHumidity_IsbL-0050_LatLon0.15_PT153H.grib2 2026-04-15 16:31 412K
20260415T12Z_MSC_GDPS_RelativeHumidity_IsbL-0100_LatLon0.15_PT153H.grib2 2026-04-15 16:31 492K
20260415T12Z_MSC_GDPS_RelativeHumidity_IsbL-0150_LatLon0.15_PT153H.grib2 2026-04-15 16:31 663K
20260415T12Z_MSC_GDPS_RelativeHumidity_IsbL-0175_LatLon0.15_PT153H.grib2 2026-04-15 16:31 799K
20260415T12Z_MSC_GDPS_RelativeHumidity_IsbL-0200_LatLon0.15_PT153H.grib2 2026-04-15 16:31 712K
20260415T12Z_MSC_GDPS_RelativeHumidity_IsbL-0225_LatLon0.15_PT153H.grib2 2026-04-15 16:31 796K
20260415T12Z_MSC_GDPS_RelativeHumidity_IsbL-0250_LatLon0.15_PT153H.grib2 2026-04-15 16:31 877K
20260415T12Z_MSC_GDPS_RelativeHumidity_IsbL-0275_LatLon0.15_PT153H.grib2 2026-04-15 16:31 903K
20260415T12Z_MSC_GDPS_RelativeHumidity_IsbL-0300_LatLon0.15_PT153H.grib2 2026-04-15 16:31 946K
20260415T12Z_MSC_GDPS_RelativeHumidity_IsbL-0350_LatLon0.15_PT153H.grib2 2026-04-15 16:31 957K
20260415T12Z_MSC_GDPS_RelativeHumidity_IsbL-0400_LatLon0.15_PT153H.grib2 2026-04-15 16:31 1.0M
20260415T12Z_MSC_GDPS_RelativeHumidity_IsbL-0450_LatLon0.15_PT153H.grib2 2026-04-15 16:31 1.0M
20260415T12Z_MSC_GDPS_RelativeHumidity_IsbL-0500_LatLon0.15_PT153H.grib2 2026-04-15 16:31 1.0M
20260415T12Z_MSC_GDPS_RelativeHumidity_IsbL-0550_LatLon0.15_PT153H.grib2 2026-04-15 16:31 1.0M
20260415T12Z_MSC_GDPS_RelativeHumidity_IsbL-0600_LatLon0.15_PT153H.grib2 2026-04-15 16:31 1.1M
20260415T12Z_MSC_GDPS_RelativeHumidity_IsbL-0650_LatLon0.15_PT153H.grib2 2026-04-15 16:31 1.1M
20260415T12Z_MSC_GDPS_RelativeHumidity_IsbL-0700_LatLon0.15_PT153H.grib2 2026-04-15 16:31 1.1M
20260415T12Z_MSC_GDPS_RelativeHumidity_IsbL-0750_LatLon0.15_PT153H.grib2 2026-04-15 16:31 1.2M
20260415T12Z_MSC_GDPS_RelativeHumidity_IsbL-0800_LatLon0.15_PT153H.grib2 2026-04-15 16:31 1.2M
20260415T12Z_MSC_GDPS_RelativeHumidity_IsbL-0850_LatLon0.15_PT153H.grib2 2026-04-15 16:31 1.2M
20260415T12Z_MSC_GDPS_RelativeHumidity_IsbL-0875_LatLon0.15_PT153H.grib2 2026-04-15 16:31 1.2M
20260415T12Z_MSC_GDPS_RelativeHumidity_IsbL-0900_LatLon0.15_PT153H.grib2 2026-04-15 16:31 1.2M
20260415T12Z_MSC_GDPS_RelativeHumidity_IsbL-0925_LatLon0.15_PT153H.grib2 2026-04-15 16:31 1.2M
20260415T12Z_MSC_GDPS_RelativeHumidity_IsbL-0950_LatLon0.15_PT153H.grib2 2026-04-15 16:31 1.2M
20260415T12Z_MSC_GDPS_RelativeHumidity_IsbL-0970_LatLon0.15_PT153H.grib2 2026-04-15 16:31 1.2M
20260415T12Z_MSC_GDPS_RelativeHumidity_IsbL-0985_LatLon0.15_PT153H.grib2 2026-04-15 16:31 1.1M
20260415T12Z_MSC_GDPS_RelativeHumidity_IsbL-1000_LatLon0.15_PT153H.grib2 2026-04-15 16:31 1.1M
20260415T12Z_MSC_GDPS_RelativeHumidity_IsbL-1015_LatLon0.15_PT153H.grib2 2026-04-15 16:31 1.0M
20260415T12Z_MSC_GDPS_Runoff-Accum_Sfc_LatLon0.15_PT153H.grib2 2026-04-15 16:31 134K
20260415T12Z_MSC_GDPS_SensibleHeatNetFlux_Sfc_LatLon0.15_PT153H.grib2 2026-04-15 16:31 442K
20260415T12Z_MSC_GDPS_ShowalterIndex_IsbL-0500_LatLon0.15_PT153H.grib2 2026-04-15 16:31 6.2M
20260415T12Z_MSC_GDPS_Snow-Accum3h_Sfc_LatLon0.15_PT153H.grib2 2026-04-15 16:31 1.1M
20260415T12Z_MSC_GDPS_Snow-Accum_Sfc_LatLon0.15_PT153H.grib2 2026-04-15 16:31 2.1M
20260415T12Z_MSC_GDPS_SnowDepth_Sfc_LatLon0.15_PT153H.grib2 2026-04-15 16:31 1.8M
20260415T12Z_MSC_GDPS_SoilTemp_DBS-0to10cm_LatLon0.15_PT153H.grib2 2026-04-15 16:31 511K
20260415T12Z_MSC_GDPS_SoilTemp_Sfc_LatLon0.15_PT153H.grib2 2026-04-15 16:31 581K
20260415T12Z_MSC_GDPS_SoilVolumetricWaterContent_DBS-0to10cm_LatLon0.15_PT153H.grib2 2026-04-15 16:31 556K
20260415T12Z_MSC_GDPS_SoilVolumetricWaterContent_DBS-0to1cm_LatLon0.15_PT153H.grib2 2026-04-15 16:31 652K
20260415T12Z_MSC_GDPS_SpecificHumidity_AGL-120m_LatLon0.15_PT153H.grib2 2026-04-15 16:31 1.1M
20260415T12Z_MSC_GDPS_SpecificHumidity_AGL-2m_LatLon0.15_PT153H.grib2 2026-04-15 16:31 1.2M
20260415T12Z_MSC_GDPS_SpecificHumidity_AGL-40m_LatLon0.15_PT153H.grib2 2026-04-15 16:31 1.1M
20260415T12Z_MSC_GDPS_SpecificHumidity_AGL-80m_LatLon0.15_PT153H.grib2 2026-04-15 16:31 1.1M
20260415T12Z_MSC_GDPS_SpecificHumidity_IsbL-0001_LatLon0.15_PT153H.grib2 2026-04-15 16:31 1.1M
20260415T12Z_MSC_GDPS_SpecificHumidity_IsbL-0005_LatLon0.15_PT153H.grib2 2026-04-15 16:31 1.0M
20260415T12Z_MSC_GDPS_SpecificHumidity_IsbL-0010_LatLon0.15_PT153H.grib2 2026-04-15 16:31 1.2M
20260415T12Z_MSC_GDPS_SpecificHumidity_IsbL-0020_LatLon0.15_PT153H.grib2 2026-04-15 16:31 1.5M
20260415T12Z_MSC_GDPS_SpecificHumidity_IsbL-0030_LatLon0.15_PT153H.grib2 2026-04-15 16:31 1.5M
20260415T12Z_MSC_GDPS_SpecificHumidity_IsbL-0050_LatLon0.15_PT153H.grib2 2026-04-15 16:31 1.2M
20260415T12Z_MSC_GDPS_SpecificHumidity_IsbL-0100_LatLon0.15_PT153H.grib2 2026-04-15 16:31 1.3M
20260415T12Z_MSC_GDPS_SpecificHumidity_IsbL-0150_LatLon0.15_PT153H.grib2 2026-04-15 16:31 1.3M
20260415T12Z_MSC_GDPS_SpecificHumidity_IsbL-0175_LatLon0.15_PT153H.grib2 2026-04-15 16:31 1.3M
20260415T12Z_MSC_GDPS_SpecificHumidity_IsbL-0200_LatLon0.15_PT153H.grib2 2026-04-15 16:31 1.3M
20260415T12Z_MSC_GDPS_SpecificHumidity_IsbL-0225_LatLon0.15_PT153H.grib2 2026-04-15 16:31 1.3M
20260415T12Z_MSC_GDPS_SpecificHumidity_IsbL-0250_LatLon0.15_PT153H.grib2 2026-04-15 16:31 1.5M
20260415T12Z_MSC_GDPS_SpecificHumidity_IsbL-0275_LatLon0.15_PT153H.grib2 2026-04-15 16:31 1.3M
20260415T12Z_MSC_GDPS_SpecificHumidity_IsbL-0300_LatLon0.15_PT153H.grib2 2026-04-15 16:31 1.2M
20260415T12Z_MSC_GDPS_SpecificHumidity_IsbL-0350_LatLon0.15_PT153H.grib2 2026-04-15 16:31 1.2M
20260415T12Z_MSC_GDPS_SpecificHumidity_IsbL-0400_LatLon0.15_PT153H.grib2 2026-04-15 16:31 1.5M
20260415T12Z_MSC_GDPS_SpecificHumidity_IsbL-0450_LatLon0.15_PT153H.grib2 2026-04-15 16:31 1.3M
20260415T12Z_MSC_GDPS_SpecificHumidity_IsbL-0500_LatLon0.15_PT153H.grib2 2026-04-15 16:31 1.5M
20260415T12Z_MSC_GDPS_SpecificHumidity_IsbL-0550_LatLon0.15_PT153H.grib2 2026-04-15 16:31 1.6M
20260415T12Z_MSC_GDPS_SpecificHumidity_IsbL-0600_LatLon0.15_PT153H.grib2 2026-04-15 16:31 1.8M
20260415T12Z_MSC_GDPS_SpecificHumidity_IsbL-0650_LatLon0.15_PT153H.grib2 2026-04-15 16:31 1.5M
20260415T12Z_MSC_GDPS_SpecificHumidity_IsbL-0700_LatLon0.15_PT153H.grib2 2026-04-15 16:31 1.6M
20260415T12Z_MSC_GDPS_SpecificHumidity_IsbL-0750_LatLon0.15_PT153H.grib2 2026-04-15 16:31 1.7M
20260415T12Z_MSC_GDPS_SpecificHumidity_IsbL-0800_LatLon0.15_PT153H.grib2 2026-04-15 16:31 1.8M
20260415T12Z_MSC_GDPS_SpecificHumidity_IsbL-0850_LatLon0.15_PT153H.grib2 2026-04-15 16:31 1.9M
20260415T12Z_MSC_GDPS_SpecificHumidity_IsbL-0875_LatLon0.15_PT153H.grib2 2026-04-15 16:31 1.9M
20260415T12Z_MSC_GDPS_SpecificHumidity_IsbL-0900_LatLon0.15_PT153H.grib2 2026-04-15 16:31 1.6M
20260415T12Z_MSC_GDPS_SpecificHumidity_IsbL-0925_LatLon0.15_PT153H.grib2 2026-04-15 16:31 1.6M
20260415T12Z_MSC_GDPS_SpecificHumidity_IsbL-0950_LatLon0.15_PT153H.grib2 2026-04-15 16:31 1.5M
20260415T12Z_MSC_GDPS_SpecificHumidity_IsbL-0970_LatLon0.15_PT153H.grib2 2026-04-15 16:31 1.5M
20260415T12Z_MSC_GDPS_SpecificHumidity_IsbL-0985_LatLon0.15_PT153H.grib2 2026-04-15 16:31 1.5M
20260415T12Z_MSC_GDPS_SpecificHumidity_IsbL-1000_LatLon0.15_PT153H.grib2 2026-04-15 16:31 1.5M
20260415T12Z_MSC_GDPS_SpecificHumidity_IsbL-1015_LatLon0.15_PT153H.grib2 2026-04-15 16:31 1.4M
20260415T12Z_MSC_GDPS_SpecificHumidity_Sfc_LatLon0.15_PT153H.grib2 2026-04-15 16:31 665K
20260415T12Z_MSC_GDPS_Thickness_IsbL-0850to0700_LatLon0.15_PT153H.grib2 2026-04-15 16:31 467K
20260415T12Z_MSC_GDPS_Thickness_IsbL-1000to0500_LatLon0.15_PT153H.grib2 2026-04-15 16:31 376K
20260415T12Z_MSC_GDPS_Thickness_IsbL-1000to0850_LatLon0.15_PT153H.grib2 2026-04-15 16:31 491K
20260415T12Z_MSC_GDPS_TotalCloudCover_Sfc_LatLon0.15_PT153H.grib2 2026-04-15 16:31 810K
20260415T12Z_MSC_GDPS_TotalTotalsIndex_Sfc_LatLon0.15_PT153H.grib2 2026-04-15 16:31 6.2M
20260415T12Z_MSC_GDPS_UVIndex-ClearSky_Sfc_LatLon0.15_PT153H.grib2 2026-04-15 16:50 1.0M
20260415T12Z_MSC_GDPS_UVIndex_Sfc_LatLon0.15_PT153H.grib2 2026-04-15 16:50 1.5M
20260415T12Z_MSC_GDPS_UpwardLongwaveRadiationFlux_NTAtm_LatLon0.15_PT153H.grib2 2026-04-15 16:31 836K
20260415T12Z_MSC_GDPS_VerticalVelocity_IsbL-0500_LatLon0.15_PT153H.grib2 2026-04-15 16:31 1.0M
20260415T12Z_MSC_GDPS_VerticalVelocity_IsbL-0700_LatLon0.15_PT153H.grib2 2026-04-15 16:31 1.1M
20260415T12Z_MSC_GDPS_VerticalVelocity_IsbL-0850_LatLon0.15_PT153H.grib2 2026-04-15 16:31 1.3M
20260415T12Z_MSC_GDPS_WindChill_Sfc_LatLon0.15_PT153H.grib2 2026-04-15 16:31 5.3M
20260415T12Z_MSC_GDPS_WindDir_AGL-10m_LatLon0.15_PT153H.grib2 2026-04-15 16:31 1.3M
20260415T12Z_MSC_GDPS_WindDir_AGL-120m_LatLon0.15_PT153H.grib2 2026-04-15 16:31 1.4M
20260415T12Z_MSC_GDPS_WindDir_AGL-40m_LatLon0.15_PT153H.grib2 2026-04-15 16:31 1.4M
20260415T12Z_MSC_GDPS_WindDir_AGL-80m_LatLon0.15_PT153H.grib2 2026-04-15 16:31 1.4M
20260415T12Z_MSC_GDPS_WindDir_IsbL-0001_LatLon0.15_PT153H.grib2 2026-04-15 16:31 640K
20260415T12Z_MSC_GDPS_WindDir_IsbL-0005_LatLon0.15_PT153H.grib2 2026-04-15 16:31 784K
20260415T12Z_MSC_GDPS_WindDir_IsbL-0010_LatLon0.15_PT153H.grib2 2026-04-15 16:31 857K
20260415T12Z_MSC_GDPS_WindDir_IsbL-0020_LatLon0.15_PT153H.grib2 2026-04-15 16:31 927K
20260415T12Z_MSC_GDPS_WindDir_IsbL-0030_LatLon0.15_PT153H.grib2 2026-04-15 16:31 891K
20260415T12Z_MSC_GDPS_WindDir_IsbL-0050_LatLon0.15_PT153H.grib2 2026-04-15 16:31 946K
20260415T12Z_MSC_GDPS_WindDir_IsbL-0100_LatLon0.15_PT153H.grib2 2026-04-15 16:31 1.0M
20260415T12Z_MSC_GDPS_WindDir_IsbL-0150_LatLon0.15_PT153H.grib2 2026-04-15 16:31 1.0M
20260415T12Z_MSC_GDPS_WindDir_IsbL-0175_LatLon0.15_PT153H.grib2 2026-04-15 16:31 1.1M
20260415T12Z_MSC_GDPS_WindDir_IsbL-0200_LatLon0.15_PT153H.grib2 2026-04-15 16:31 1.1M
20260415T12Z_MSC_GDPS_WindDir_IsbL-0225_LatLon0.15_PT153H.grib2 2026-04-15 16:31 1.1M
20260415T12Z_MSC_GDPS_WindDir_IsbL-0250_LatLon0.15_PT153H.grib2 2026-04-15 16:31 1.1M
20260415T12Z_MSC_GDPS_WindDir_IsbL-0275_LatLon0.15_PT153H.grib2 2026-04-15 16:31 1.2M
20260415T12Z_MSC_GDPS_WindDir_IsbL-0300_LatLon0.15_PT153H.grib2 2026-04-15 16:31 1.2M
20260415T12Z_MSC_GDPS_WindDir_IsbL-0350_LatLon0.15_PT153H.grib2 2026-04-15 16:31 1.2M
20260415T12Z_MSC_GDPS_WindDir_IsbL-0400_LatLon0.15_PT153H.grib2 2026-04-15 16:31 1.3M
20260415T12Z_MSC_GDPS_WindDir_IsbL-0450_LatLon0.15_PT153H.grib2 2026-04-15 16:31 1.3M
20260415T12Z_MSC_GDPS_WindDir_IsbL-0500_LatLon0.15_PT153H.grib2 2026-04-15 16:31 1.3M
20260415T12Z_MSC_GDPS_WindDir_IsbL-0550_LatLon0.15_PT153H.grib2 2026-04-15 16:31 1.4M
20260415T12Z_MSC_GDPS_WindDir_IsbL-0600_LatLon0.15_PT153H.grib2 2026-04-15 16:31 1.4M
20260415T12Z_MSC_GDPS_WindDir_IsbL-0650_LatLon0.15_PT153H.grib2 2026-04-15 16:31 1.5M
20260415T12Z_MSC_GDPS_WindDir_IsbL-0700_LatLon0.15_PT153H.grib2 2026-04-15 16:31 1.6M
20260415T12Z_MSC_GDPS_WindDir_IsbL-0750_LatLon0.15_PT153H.grib2 2026-04-15 16:31 1.7M
20260415T12Z_MSC_GDPS_WindDir_IsbL-0800_LatLon0.15_PT153H.grib2 2026-04-15 16:31 1.8M
20260415T12Z_MSC_GDPS_WindDir_IsbL-0850_LatLon0.15_PT153H.grib2 2026-04-15 16:31 1.9M
20260415T12Z_MSC_GDPS_WindDir_IsbL-0875_LatLon0.15_PT153H.grib2 2026-04-15 16:31 2.0M
20260415T12Z_MSC_GDPS_WindDir_IsbL-0900_LatLon0.15_PT153H.grib2 2026-04-15 16:31 2.0M
20260415T12Z_MSC_GDPS_WindDir_IsbL-0925_LatLon0.15_PT153H.grib2 2026-04-15 16:31 2.0M
20260415T12Z_MSC_GDPS_WindDir_IsbL-0950_LatLon0.15_PT153H.grib2 2026-04-15 16:31 2.0M
20260415T12Z_MSC_GDPS_WindDir_IsbL-0970_LatLon0.15_PT153H.grib2 2026-04-15 16:31 2.0M
20260415T12Z_MSC_GDPS_WindDir_IsbL-0985_LatLon0.15_PT153H.grib2 2026-04-15 16:31 2.0M
20260415T12Z_MSC_GDPS_WindDir_IsbL-1000_LatLon0.15_PT153H.grib2 2026-04-15 16:31 2.1M
20260415T12Z_MSC_GDPS_WindDir_IsbL-1015_LatLon0.15_PT153H.grib2 2026-04-15 16:31 2.0M
20260415T12Z_MSC_GDPS_WindGust-Max_AGL-10m_LatLon0.15_PT153H.grib2 2026-04-15 16:31 2.2M
20260415T12Z_MSC_GDPS_WindGust-Min_AGL-10m_LatLon0.15_PT153H.grib2 2026-04-15 16:31 2.2M
20260415T12Z_MSC_GDPS_WindGust_AGL-10m_LatLon0.15_PT153H.grib2 2026-04-15 16:31 2.2M
20260415T12Z_MSC_GDPS_WindSpeed_AGL-10m_LatLon0.15_PT153H.grib2 2026-04-15 16:31 1.1M
20260415T12Z_MSC_GDPS_WindSpeed_AGL-120m_LatLon0.15_PT153H.grib2 2026-04-15 16:31 1.2M
20260415T12Z_MSC_GDPS_WindSpeed_AGL-40m_LatLon0.15_PT153H.grib2 2026-04-15 16:31 1.2M
20260415T12Z_MSC_GDPS_WindSpeed_AGL-80m_LatLon0.15_PT153H.grib2 2026-04-15 16:31 1.2M
20260415T12Z_MSC_GDPS_WindSpeed_IsbL-0001_LatLon0.15_PT153H.grib2 2026-04-15 16:31 630K
20260415T12Z_MSC_GDPS_WindSpeed_IsbL-0005_LatLon0.15_PT153H.grib2 2026-04-15 16:31 601K
20260415T12Z_MSC_GDPS_WindSpeed_IsbL-0010_LatLon0.15_PT153H.grib2 2026-04-15 16:31 622K
20260415T12Z_MSC_GDPS_WindSpeed_IsbL-0020_LatLon0.15_PT153H.grib2 2026-04-15 16:31 851K
20260415T12Z_MSC_GDPS_WindSpeed_IsbL-0030_LatLon0.15_PT153H.grib2 2026-04-15 16:31 927K
20260415T12Z_MSC_GDPS_WindSpeed_IsbL-0050_LatLon0.15_PT153H.grib2 2026-04-15 16:31 1.0M
20260415T12Z_MSC_GDPS_WindSpeed_IsbL-0100_LatLon0.15_PT153H.grib2 2026-04-15 16:31 1.1M
20260415T12Z_MSC_GDPS_WindSpeed_IsbL-0150_LatLon0.15_PT153H.grib2 2026-04-15 16:31 1.0M
20260415T12Z_MSC_GDPS_WindSpeed_IsbL-0175_LatLon0.15_PT153H.grib2 2026-04-15 16:31 1.0M
20260415T12Z_MSC_GDPS_WindSpeed_IsbL-0200_LatLon0.15_PT153H.grib2 2026-04-15 16:31 1.1M
20260415T12Z_MSC_GDPS_WindSpeed_IsbL-0225_LatLon0.15_PT153H.grib2 2026-04-15 16:31 1.1M
20260415T12Z_MSC_GDPS_WindSpeed_IsbL-0250_LatLon0.15_PT153H.grib2 2026-04-15 16:31 1.1M
20260415T12Z_MSC_GDPS_WindSpeed_IsbL-0275_LatLon0.15_PT153H.grib2 2026-04-15 16:31 1.1M
20260415T12Z_MSC_GDPS_WindSpeed_IsbL-0300_LatLon0.15_PT153H.grib2 2026-04-15 16:31 1.1M
20260415T12Z_MSC_GDPS_WindSpeed_IsbL-0350_LatLon0.15_PT153H.grib2 2026-04-15 16:31 1.1M
20260415T12Z_MSC_GDPS_WindSpeed_IsbL-0400_LatLon0.15_PT153H.grib2 2026-04-15 16:31 1.1M
20260415T12Z_MSC_GDPS_WindSpeed_IsbL-0450_LatLon0.15_PT153H.grib2 2026-04-15 16:31 1.1M
20260415T12Z_MSC_GDPS_WindSpeed_IsbL-0500_LatLon0.15_PT153H.grib2 2026-04-15 16:31 1.1M
20260415T12Z_MSC_GDPS_WindSpeed_IsbL-0550_LatLon0.15_PT153H.grib2 2026-04-15 16:31 1.1M
20260415T12Z_MSC_GDPS_WindSpeed_IsbL-0600_LatLon0.15_PT153H.grib2 2026-04-15 16:31 1.1M
20260415T12Z_MSC_GDPS_WindSpeed_IsbL-0650_LatLon0.15_PT153H.grib2 2026-04-15 16:31 1.4M
20260415T12Z_MSC_GDPS_WindSpeed_IsbL-0700_LatLon0.15_PT153H.grib2 2026-04-15 16:31 1.5M
20260415T12Z_MSC_GDPS_WindSpeed_IsbL-0750_LatLon0.15_PT153H.grib2 2026-04-15 16:31 1.5M
20260415T12Z_MSC_GDPS_WindSpeed_IsbL-0800_LatLon0.15_PT153H.grib2 2026-04-15 16:31 1.6M
20260415T12Z_MSC_GDPS_WindSpeed_IsbL-0850_LatLon0.15_PT153H.grib2 2026-04-15 16:31 1.7M
20260415T12Z_MSC_GDPS_WindSpeed_IsbL-0875_LatLon0.15_PT153H.grib2 2026-04-15 16:31 1.9M
20260415T12Z_MSC_GDPS_WindSpeed_IsbL-0900_LatLon0.15_PT153H.grib2 2026-04-15 16:31 1.8M
20260415T12Z_MSC_GDPS_WindSpeed_IsbL-0925_LatLon0.15_PT153H.grib2 2026-04-15 16:31 1.8M
20260415T12Z_MSC_GDPS_WindSpeed_IsbL-0950_LatLon0.15_PT153H.grib2 2026-04-15 16:31 1.9M
20260415T12Z_MSC_GDPS_WindSpeed_IsbL-0970_LatLon0.15_PT153H.grib2 2026-04-15 16:31 1.9M
20260415T12Z_MSC_GDPS_WindSpeed_IsbL-0985_LatLon0.15_PT153H.grib2 2026-04-15 16:31 1.8M
20260415T12Z_MSC_GDPS_WindSpeed_IsbL-1000_LatLon0.15_PT153H.grib2 2026-04-15 16:31 1.8M
20260415T12Z_MSC_GDPS_WindSpeed_IsbL-1015_LatLon0.15_PT153H.grib2 2026-04-15 16:31 1.8M
20260415T12Z_MSC_GDPS_WindU_AGL-10m_LatLon0.15_PT153H.grib2 2026-04-15 16:31 1.3M
20260415T12Z_MSC_GDPS_WindU_AGL-120m_LatLon0.15_PT153H.grib2 2026-04-15 16:31 1.0M
20260415T12Z_MSC_GDPS_WindU_AGL-40m_LatLon0.15_PT153H.grib2 2026-04-15 16:31 970K
20260415T12Z_MSC_GDPS_WindU_AGL-80m_LatLon0.15_PT153H.grib2 2026-04-15 16:31 1.0M
20260415T12Z_MSC_GDPS_WindU_IsbL-0001_LatLon0.15_PT153H.grib2 2026-04-15 16:31 632K
20260415T12Z_MSC_GDPS_WindU_IsbL-0005_LatLon0.15_PT153H.grib2 2026-04-15 16:31 681K
20260415T12Z_MSC_GDPS_WindU_IsbL-0010_LatLon0.15_PT153H.grib2 2026-04-15 16:31 694K
20260415T12Z_MSC_GDPS_WindU_IsbL-0020_LatLon0.15_PT153H.grib2 2026-04-15 16:31 650K
20260415T12Z_MSC_GDPS_WindU_IsbL-0030_LatLon0.15_PT153H.grib2 2026-04-15 16:31 729K
20260415T12Z_MSC_GDPS_WindU_IsbL-0050_LatLon0.15_PT153H.grib2 2026-04-15 16:31 698K
20260415T12Z_MSC_GDPS_WindU_IsbL-0100_LatLon0.15_PT153H.grib2 2026-04-15 16:31 926K
20260415T12Z_MSC_GDPS_WindU_IsbL-0150_LatLon0.15_PT153H.grib2 2026-04-15 16:31 1.0M
20260415T12Z_MSC_GDPS_WindU_IsbL-0175_LatLon0.15_PT153H.grib2 2026-04-15 16:31 1.0M
20260415T12Z_MSC_GDPS_WindU_IsbL-0200_LatLon0.15_PT153H.grib2 2026-04-15 16:31 852K
20260415T12Z_MSC_GDPS_WindU_IsbL-0225_LatLon0.15_PT153H.grib2 2026-04-15 16:31 861K
20260415T12Z_MSC_GDPS_WindU_IsbL-0250_LatLon0.15_PT153H.grib2 2026-04-15 16:31 859K
20260415T12Z_MSC_GDPS_WindU_IsbL-0275_LatLon0.15_PT153H.grib2 2026-04-15 16:31 885K
20260415T12Z_MSC_GDPS_WindU_IsbL-0300_LatLon0.15_PT153H.grib2 2026-04-15 16:31 874K
20260415T12Z_MSC_GDPS_WindU_IsbL-0350_LatLon0.15_PT153H.grib2 2026-04-15 16:31 886K
20260415T12Z_MSC_GDPS_WindU_IsbL-0400_LatLon0.15_PT153H.grib2 2026-04-15 16:31 889K
20260415T12Z_MSC_GDPS_WindU_IsbL-0450_LatLon0.15_PT153H.grib2 2026-04-15 16:31 1.1M
20260415T12Z_MSC_GDPS_WindU_IsbL-0500_LatLon0.15_PT153H.grib2 2026-04-15 16:31 1.1M
20260415T12Z_MSC_GDPS_WindU_IsbL-0550_LatLon0.15_PT153H.grib2 2026-04-15 16:31 1.1M
20260415T12Z_MSC_GDPS_WindU_IsbL-0600_LatLon0.15_PT153H.grib2 2026-04-15 16:31 1.1M
20260415T12Z_MSC_GDPS_WindU_IsbL-0650_LatLon0.15_PT153H.grib2 2026-04-15 16:31 1.2M
20260415T12Z_MSC_GDPS_WindU_IsbL-0700_LatLon0.15_PT153H.grib2 2026-04-15 16:31 1.2M
20260415T12Z_MSC_GDPS_WindU_IsbL-0750_LatLon0.15_PT153H.grib2 2026-04-15 16:31 1.3M
20260415T12Z_MSC_GDPS_WindU_IsbL-0800_LatLon0.15_PT153H.grib2 2026-04-15 16:31 1.3M
20260415T12Z_MSC_GDPS_WindU_IsbL-0850_LatLon0.15_PT153H.grib2 2026-04-15 16:31 1.4M
20260415T12Z_MSC_GDPS_WindU_IsbL-0875_LatLon0.15_PT153H.grib2 2026-04-15 16:31 1.4M
20260415T12Z_MSC_GDPS_WindU_IsbL-0900_LatLon0.15_PT153H.grib2 2026-04-15 16:31 1.4M
20260415T12Z_MSC_GDPS_WindU_IsbL-0925_LatLon0.15_PT153H.grib2 2026-04-15 16:31 1.4M
20260415T12Z_MSC_GDPS_WindU_IsbL-0950_LatLon0.15_PT153H.grib2 2026-04-15 16:31 1.4M
20260415T12Z_MSC_GDPS_WindU_IsbL-0970_LatLon0.15_PT153H.grib2 2026-04-15 16:31 1.4M
20260415T12Z_MSC_GDPS_WindU_IsbL-0985_LatLon0.15_PT153H.grib2 2026-04-15 16:31 1.4M
20260415T12Z_MSC_GDPS_WindU_IsbL-1000_LatLon0.15_PT153H.grib2 2026-04-15 16:31 1.4M
20260415T12Z_MSC_GDPS_WindU_IsbL-1015_LatLon0.15_PT153H.grib2 2026-04-15 16:31 1.3M
20260415T12Z_MSC_GDPS_WindV_AGL-10m_LatLon0.15_PT153H.grib2 2026-04-15 16:31 1.6M
20260415T12Z_MSC_GDPS_WindV_AGL-120m_LatLon0.15_PT153H.grib2 2026-04-15 16:31 1.0M
20260415T12Z_MSC_GDPS_WindV_AGL-40m_LatLon0.15_PT153H.grib2 2026-04-15 16:31 1.2M
20260415T12Z_MSC_GDPS_WindV_AGL-80m_LatLon0.15_PT153H.grib2 2026-04-15 16:31 1.2M
20260415T12Z_MSC_GDPS_WindV_IsbL-0001_LatLon0.15_PT153H.grib2 2026-04-15 16:31 690K
20260415T12Z_MSC_GDPS_WindV_IsbL-0005_LatLon0.15_PT153H.grib2 2026-04-15 16:31 844K
20260415T12Z_MSC_GDPS_WindV_IsbL-0010_LatLon0.15_PT153H.grib2 2026-04-15 16:31 875K
20260415T12Z_MSC_GDPS_WindV_IsbL-0020_LatLon0.15_PT153H.grib2 2026-04-15 16:31 927K
20260415T12Z_MSC_GDPS_WindV_IsbL-0030_LatLon0.15_PT153H.grib2 2026-04-15 16:31 927K
20260415T12Z_MSC_GDPS_WindV_IsbL-0050_LatLon0.15_PT153H.grib2 2026-04-15 16:31 1.0M
20260415T12Z_MSC_GDPS_WindV_IsbL-0100_LatLon0.15_PT153H.grib2 2026-04-15 16:31 859K
20260415T12Z_MSC_GDPS_WindV_IsbL-0150_LatLon0.15_PT153H.grib2 2026-04-15 16:31 1.0M
20260415T12Z_MSC_GDPS_WindV_IsbL-0175_LatLon0.15_PT153H.grib2 2026-04-15 16:31 1.0M
20260415T12Z_MSC_GDPS_WindV_IsbL-0200_LatLon0.15_PT153H.grib2 2026-04-15 16:31 853K
20260415T12Z_MSC_GDPS_WindV_IsbL-0225_LatLon0.15_PT153H.grib2 2026-04-15 16:31 861K
20260415T12Z_MSC_GDPS_WindV_IsbL-0250_LatLon0.15_PT153H.grib2 2026-04-15 16:31 858K
20260415T12Z_MSC_GDPS_WindV_IsbL-0275_LatLon0.15_PT153H.grib2 2026-04-15 16:31 939K
20260415T12Z_MSC_GDPS_WindV_IsbL-0300_LatLon0.15_PT153H.grib2 2026-04-15 16:31 928K
20260415T12Z_MSC_GDPS_WindV_IsbL-0350_LatLon0.15_PT153H.grib2 2026-04-15 16:31 936K
20260415T12Z_MSC_GDPS_WindV_IsbL-0400_LatLon0.15_PT153H.grib2 2026-04-15 16:31 937K
20260415T12Z_MSC_GDPS_WindV_IsbL-0450_LatLon0.15_PT153H.grib2 2026-04-15 16:31 880K
20260415T12Z_MSC_GDPS_WindV_IsbL-0500_LatLon0.15_PT153H.grib2 2026-04-15 16:31 885K
20260415T12Z_MSC_GDPS_WindV_IsbL-0550_LatLon0.15_PT153H.grib2 2026-04-15 16:31 1.1M
20260415T12Z_MSC_GDPS_WindV_IsbL-0600_LatLon0.15_PT153H.grib2 2026-04-15 16:31 1.1M
20260415T12Z_MSC_GDPS_WindV_IsbL-0650_LatLon0.15_PT153H.grib2 2026-04-15 16:31 1.2M
20260415T12Z_MSC_GDPS_WindV_IsbL-0700_LatLon0.15_PT153H.grib2 2026-04-15 16:31 1.2M
20260415T12Z_MSC_GDPS_WindV_IsbL-0750_LatLon0.15_PT153H.grib2 2026-04-15 16:31 1.2M
20260415T12Z_MSC_GDPS_WindV_IsbL-0800_LatLon0.15_PT153H.grib2 2026-04-15 16:31 1.3M
20260415T12Z_MSC_GDPS_WindV_IsbL-0850_LatLon0.15_PT153H.grib2 2026-04-15 16:31 1.4M
20260415T12Z_MSC_GDPS_WindV_IsbL-0875_LatLon0.15_PT153H.grib2 2026-04-15 16:31 1.4M
20260415T12Z_MSC_GDPS_WindV_IsbL-0900_LatLon0.15_PT153H.grib2 2026-04-15 16:31 1.4M
20260415T12Z_MSC_GDPS_WindV_IsbL-0925_LatLon0.15_PT153H.grib2 2026-04-15 16:31 1.4M
20260415T12Z_MSC_GDPS_WindV_IsbL-0950_LatLon0.15_PT153H.grib2 2026-04-15 16:31 1.4M
20260415T12Z_MSC_GDPS_WindV_IsbL-0970_LatLon0.15_PT153H.grib2 2026-04-15 16:31 1.4M
20260415T12Z_MSC_GDPS_WindV_IsbL-0985_LatLon0.15_PT153H.grib2 2026-04-15 16:31 1.7M
20260415T12Z_MSC_GDPS_WindV_IsbL-1000_LatLon0.15_PT153H.grib2 2026-04-15 16:31 1.7M
20260415T12Z_MSC_GDPS_WindV_IsbL-1015_LatLon0.15_PT153H.grib2 2026-04-15 16:31 1.6M